{"data":{"norad_id":66100,"epoch":"2026-05-25T04:00:03.998880Z","epoch_age_seconds":50906,"freshness":"FRESH","line1":"1 66100U 25236Q   26145.16671295 -.00006899  00000+0 -19328-3 0  9995","line2":"2 66100  53.1592 108.8161 0001207  75.3771 195.8587 15.34393073  5854","mean_motion":15.34393073,"eccentricity":0.0001207,"inclination_deg":53.1592,"raan_deg":108.8161,"arg_perigee_deg":75.3771,"mean_anomaly_deg":195.8587,"bstar":-0.00019328,"rev_number":585,"period_min":93.848181755967,"perigee_km":461.89813688633,"apogee_km":463.5495206904,"semimajor_km":6840.8608287884,"source":"CELESTRAK","updated_at":"2026-05-25T13:38:21.029756Z"}}